Location: Possagno
(45.8500°N, 11.8667°E)
Time: 09:45:36
(UTC+00:00)

STARLINK-2709 - Pass Details

Date: 30 July 2021
Orbit: 546 x 548 km, 53.1° (Epoch: 22 September)

Event Time Altitude Azimuth Distance (km) Brightness Sun altitude
Rises 19:23:34 0° 296° (WNW) 2,689 9.4 -6.7°
Reaches altitude 10° 19:25:57 10° 286° (WNW) 1,795 7.6 -7.0°
Maximum altitude 19:29:33 31° 224° (SW) 960 4.9 -7.5°
Drops below altitude 10° 19:33:09 10° 161° (SSE) 1,789 5.7 -8.0°
Enters shadow 19:33:49 - 158° (SSE) 2,030 6.0 -8.1°
